sat.trackr.live / text

‹ back to catalog

STARLINK-31975

NORAD 59886 · 2024-100B

PAYLOAD ACTIVE UNKNOWN

§ Identity

Operator
Country
US
Launch date
2024-05-28
Launch site
AFETR
Launch vehicle
Mass (kg)
RCS (m²)

Purposes: comms

External: N2YO · Heavens-Above · Gunter

§ Orbital elements

Epoch: 2026-09-21T21:29:43.903392Z

Period
94.27 min
Inclination
43.0017°
Eccentricity
0.0001084
Mean motion
15.27573155 rev/d
Perigee alt
482.3 km
Apogee alt
483.8 km
Semi-major
6,861.2 km
B*
-3.1142e-6
RAAN
97.3631°
Arg perigee
270.0044°
Mean anomaly
90.0684°
Rev number
13,116

§ Raw data

STARLINK-319751 59886U 24100B   26264.89564703 -.00000348  00000+0 -31142-5 0  99972 59886  43.0017  97.3631 0001084 270.0044  90.0684 15.27573155131162

JSON: /api/v1/satellites/59886 · /tle

For live sub-satellite position, see the globe view (requires WebGL).

§ Visibility from observer

Set your observer location to see the next 7 days of passes ≥ 10°. The values pass through the URL so the page stays shareable.

No JS? Fill the form by hand. The geolocation button needs JavaScript.